MST,Max TemperatureF,Mean TemperatureF,Min TemperatureF,Max Dew PointF,MeanDew PointF,Min DewpointF,Max Humidity, Mean Humidity, Min Humidity, Max Sea Level PressureIn, Mean Sea Level PressureIn, Min Sea Level PressureIn, Max VisibilityMiles, Mean VisibilityMiles, Min VisibilityMiles, Max Wind SpeedMPH, Mean Wind SpeedMPH, Max Gust SpeedMPH,PrecipitationIn, CloudCover, Events, WindDirDegrees
2013-1-1,30,17,3,15,10,2,92,73,53,30.29,30.22,30.14,10,10,10,14,5,16,0.00,0,,291
2013-1-2,32,20,8,10,5,-2,76,56,36,30.41,30.30,30.22,10,10,10,16,8,20,0.00,1,,249
2013-1-3,37,23,8,7,2,-2,73,46,19,30.49,30.38,30.29,10,10,10,17,10,20,0.00,0,,257
2013-1-4,40,24,8,1,-4,-10,61,37,12,30.34,30.19,30.05,10,10,10,18,10,22,0.00,0,,240
2013-1-5,43,28,13,10,6,1,67,46,24,30.45,30.27,30.04,10,10,10,18,8,23,0.00,0,,274
2013-1-6,56,37,17,13,9,2,61,37,12,30.35,30.15,29.93,10,10,10,28,14,33,0.00,0,,241
2013-1-7,53,36,19,12,8,3,62,38,13,29.98,29.91,29.84,10,10,10,20,7,24,0.00,0,,260
2013-1-8,55,37,19,13,7,1,62,37,12,30.27,29.99,29.80,10,10,10,20,9,23,0.00,0,,237
2013-1-9,55,36,16,18,12,8,68,42,16,30.44,30.26,30.07,10,10,10,18,9,23,0.00,0,,209
2013-1-10,60,42,24,22,10,-3,50,30,9,30.04,29.75,29.47,10,10,10,24,7,30,0.00,2,,237
2013-1-11,47,27,7,18,1,-12,46,29,12,29.89,29.54,29.32,10,10,10,41,19,53,0.00,1,,234
2013-1-12,27,15,3,10,-3,-12,92,57,21,30.11,29.98,29.89,10,7,1,20,9,24,T,3,Snow,33
2013-1-13,20,4,-12,9,0,-15,92,72,51,30.27,30.15,29.92,10,9,3,10,5,13,0.03,3,Snow,303
2013-1-14,26,13,0,9,4,-2,88,67,46,30.25,30.16,29.99,10,10,8,14,5,16,0.00,4,,330
2013-1-15,31,14,-4,8,-2,-9,86,53,19,30.32,30.25,30.18,10,10,10,18,8,24,0.00,4,,288
2013-1-16,52,35,17,19,12,6,62,43,24,30.42,30.27,30.16,10,10,10,17,9,22,0.00,1,,297
2013-1-17,52,34,16,20,16,11,74,50,26,30.54,30.39,30.23,10,10,10,18,7,22,0.00,0,,262
2013-1-18,61,42,22,19,7,-4,65,37,8,30.25,30.14,30.02,10,10,10,20,12,30,0.00,0,,278
2013-1-19,56,40,23,7,1,-4,35,23,10,30.29,30.19,30.06,10,10,10,20,10,22,0.00,0,,231
2013-1-20,55,36,17,6,3,-5,45,27,9,30.30,30.17,30.06,10,10,10,22,11,28,0.00,0,,291
2013-1-21,56,37,17,7,5,3,54,33,12,30.31,30.16,30.05,10,10,10,16,8,20,0.00,0,,250
2013-1-22,68,47,25,7,-6,-21,42,23,3,30.18,30.10,29.98,10,10,10,20,9,23,0.00,0,,277
2013-1-23,72,46,20,-2,-12,-26,22,12,2,30.23,30.13,30.02,10,10,10,22,10,25,0.00,0,,264
2013-1-24,67,47,26,18,3,-4,37,22,6,30.12,30.01,29.89,10,10,10,22,9,25,0.00,0,,284
2013-1-25,62,45,28,22,18,15,58,40,21,30.21,30.07,29.99,10,10,10,18,9,24,0.00,0,,258
2013-1-26,63,45,26,40,28,17,69,49,29,30.02,29.85,29.60,10,10,10,25,10,31,0.00,1,,226
2013-1-27,66,54,41,30,24,18,50,33,15,29.76,29.62,29.53,10,10,10,28,16,33,0.00,0,,246
2013-1-28,61,47,33,27,22,18,59,41,22,29.65,29.57,29.46,10,10,10,35,15,43,T,1,Rain,231
2013-1-29,38,25,12,25,19,5,92,59,25,30.00,29.66,29.51,10,5,0,26,10,33,0.00,7,Fog-Snow,19
2013-1-30,43,25,7,16,10,0,84,54,24,30.12,30.00,29.86,10,9,2,22,11,29,T,2,Snow,263
2013-1-31,51,36,21,17,13,9,55,39,22,30.15,30.06,29.97,10,10,10,21,7,24,0.00,0,,288